Content
SEND FEEDBACK

Daily
Averages
Monthly
Summary
United States of America

TAMUNING, GUAM


Home > North America > United States > Guam
Elevation: 76 meters     Latitude: 13 29N     Longitude: 144 47E

WEATHER
 
SELECT A DAY
Number of Records: 350,330;   Date Range: 1/1/95 - 10/1/14
 
SHARE

PRINT THIS DATA

[ ← Previous Day ]
WEATHER ALMANAC - 14 MARCH, 2014
[ Next Day → ]
[ °F ]   °C
Weather ElementAverageHighLow
Temperature26.3 °C29 °C (12:08 pm)24.8 °C (1:58 am)
Dewpoint23.4 °C24 °C (9:33 am)22.8 °C (4:58 am)
Humidity84.4 %94 % (10:09 pm)74 % (12:08 pm)
Barometer1015.2 hPa1016.9 hPa (10:09 pm)1012.9 hPa (3:58 am)
Wind Speed25.3 km/h37 km/h (9:58 am)
Wind Gust44.4 km/h (1:41 am)
Weather ElementAverage
Visibility16.1 km
Wind DirectionENE (71.7 °)

Weather ElementTotal
Precipitation0.25 mm
Cooling Degree Days8.6 (Base 18.3)
Growing Degree Days16.9 (Base 10)
Averaged from 137 records on 14 March, 2014
WEATHER CONDITIONS BREAKOUT
WIND DIRECTION BREAKOUT
WEATHER BY HOUR - 14 MARCH, 2014
[ °F ]   °C
Local TimeTemperatureDewpointHumidityBarometerVisibilityWind DirectionWind SpeedGust SpeedPrecipitationEventsConditions
12:38 AM26 °C23 °C83 %1015.2 hPa16.1 kmENE (70°)25.9 km/hMostly Cloudy
12:43 AM26 °C23 °C83 %1015.2 hPa16.1 kmENE (70°)29.6 km/hScattered Clouds
12:58 AM25.6 °C23 °C85 %1014.6 hPa16.1 kmENE (70°)25.9 km/hMostly Cloudy
1:18 AM25 °C23 °C89 %1014.9 hPa16.1 kmENE (70°)29.6 km/h42.6 km/hMostly Cloudy
1:23 AM25 °C23 °C89 %1014.9 hPa16.1 kmENE (70°)25.9 km/h42.6 km/hScattered Clouds
1:41 AM25 °C23 °C89 %1014.9 hPa16.1 kmENE (70°)25.9 km/h44.4 km/hRainLight Rain
1:51 AM25 °C23 °C89 %1014.9 hPa16.1 kmEast (80°)29.6 km/hRainLight Rain
1:55 AM25 °C23 °C89 %1014.9 hPa16.1 kmEast (80°)25.9 km/hMostly Cloudy
1:58 AM24.8 °C22.9 °C89 %1013.9 hPa16.1 kmEast (80°)24.1 km/h0.25 mmMostly Cloudy
2:03 AM25 °C23 °C89 %1014.9 hPa16.1 kmEast (80°)27.8 km/hOvercast
2:37 AM25 °C23 °C89 %1014.2 hPa16.1 kmENE (70°)33.3 km/h40.7 km/hRainLight Rain
2:52 AM25 °C23 °C89 %1014.2 hPa16.1 kmENE (70°)24.1 km/hMostly Cloudy
2:58 AM25.1 °C23 °C88 %1013.2 hPa16.1 kmENE (70°)29.6 km/h0 mmMostly Cloudy
3:13 AM25 °C23 °C89 %1014.2 hPa16.1 kmENE (70°)27.8 km/hMostly Cloudy
3:18 AM25 °C23 °C89 %1014.2 hPa16.1 kmENE (70°)25.9 km/h37 km/hMostly Cloudy
3:23 AM25 °C23 °C89 %1014.2 hPa16.1 kmENE (70°)25.9 km/h37 km/hMostly Cloudy
3:28 AM25 °C23 °C89 %1014.2 hPa16.1 kmENE (70°)25.9 km/hMostly Cloudy
3:58 AM25.3 °C22.9 °C86 %1012.9 hPa16.1 kmEast (80°)20.4 km/hScattered Clouds
4:28 AM25 °C23 °C89 %1014.2 hPa16.1 kmENE (70°)25.9 km/hMostly Cloudy
4:33 AM25 °C23 °C89 %1014.2 hPa16.1 kmEast (80°)25.9 km/hMostly Cloudy
4:48 AM25 °C23 °C89 %1014.2 hPa16.1 kmENE (70°)25.9 km/hMostly Cloudy
4:53 AM25 °C23 °C89 %1014.2 hPa16.1 kmEast (80°)24.1 km/hMostly Cloudy
4:58 AM25.2 °C22.8 °C86 %1013.2 hPa16.1 kmENE (70°)20.4 km/hMostly Cloudy
5:08 AM25 °C23 °C89 %1014.2 hPa16.1 kmEast (80°)25.9 km/hMostly Cloudy
5:23 AM25 °C23 °C89 %1014.2 hPa16.1 kmEast (80°)20.4 km/hMostly Cloudy
5:48 AM25 °C23 °C89 %1014.6 hPa16.1 kmEast (80°)24.1 km/hMostly Cloudy
5:53 AM25 °C23 °C89 %1014.6 hPa16.1 kmENE (70°)25.9 km/hMostly Cloudy
5:58 AM25.3 °C23 °C87 %1013.9 hPa16.1 kmEast (80°)27.8 km/hMostly Cloudy
6:08 AM25 °C23 °C89 %1014.9 hPa16.1 kmENE (70°)29.6 km/hMostly Cloudy
6:13 AM25 °C23 °C89 %1014.9 hPa16.1 kmENE (70°)29.6 km/hMostly Cloudy
6:18 AM25 °C23 °C89 %1014.9 hPa16.1 kmEast (80°)31.5 km/hMostly Cloudy
6:28 AM25 °C23 °C89 %1015.2 hPa16.1 kmENE (70°)25.9 km/hScattered Clouds
6:38 AM25 °C23 °C89 %1015.2 hPa16.1 kmEast (80°)25.9 km/h35.2 km/hScattered Clouds
6:43 AM25 °C23 °C89 %1015.2 hPa16.1 kmENE (70°)25.9 km/hMostly Cloudy
6:58 AM25.4 °C23.2 °C88 %1014.6 hPa16.1 kmEast (80°)22.2 km/hMostly Cloudy
7:03 AM26 °C23 °C83 %1015.2 hPa16.1 kmENE (70°)22.2 km/hMostly Cloudy
7:13 AM26 °C23 °C83 %1015.6 hPa16.1 kmEast (80°)24.1 km/hScattered Clouds
7:23 AM26 °C23 °C83 %1015.6 hPa16.1 kmENE (70°)25.9 km/hMostly Cloudy
7:28 AM26 °C23 °C83 %1015.6 hPa16.1 kmENE (70°)27.8 km/hMostly Cloudy
7:58 AM26 °C23 °C83 %1014.9 hPa16.1 kmENE (70°)22.2 km/hMostly Cloudy
8:18 AM26 °C23 °C83 %1015.9 hPa16.1 kmEast (90°)25.9 km/hScattered Clouds
8:23 AM26 °C23 °C83 %1016.3 hPa16.1 kmEast (80°)25.9 km/hMostly Cloudy
8:58 AM26.7 °C23.4 °C82 %1015.6 hPa16.1 kmENE (70°)25.9 km/hMostly Cloudy
9:13 AM27 °C23 °C79 %1016.6 hPa16.1 kmEast (80°)29.6 km/hMostly Cloudy
9:18 AM27 °C23 °C79 %1016.6 hPa16.1 kmENE (70°)27.8 km/hMostly Cloudy
9:33 AM27 °C24 °C84 %1016.6 hPa16.1 kmENE (70°)29.6 km/h40.7 km/hMostly Cloudy
9:38 AM27 °C24 °C84 %1016.6 hPa16.1 kmENE (70°)29.6 km/h40.7 km/hMostly Cloudy
9:48 AM27 °C24 °C84 %1016.6 hPa16.1 kmENE (70°)27.8 km/h40.7 km/hMostly Cloudy
9:53 AM27 °C24 °C84 %1016.6 hPa16.1 kmEast (80°)27.8 km/hMostly Cloudy
9:58 AM27.5 °C23.6 °C79 %1015.6 hPa16.1 kmENE (70°)37 km/hMostly Cloudy
10:28 AM28 °C24 °C79 %1016.6 hPa16.1 kmENE (70°)27.8 km/h38.9 km/hMostly Cloudy
10:53 AM28 °C24 °C79 %1016.6 hPa16.1 kmENE (70°)31.5 km/h38.9 km/hMostly Cloudy
10:58 AM27.9 °C24 °C79 %1015.6 hPa16.1 kmENE (70°)33.3 km/h38.9 km/hMostly Cloudy
11:53 AM28 °C24 °C79 %1015.9 hPa16.1 kmENE (70°)33.3 km/hMostly Cloudy
11:58 AM28 °C23.8 °C78 %1014.9 hPa16.1 kmEast (80°)29.6 km/hMostly Cloudy
12:08 PM29 °C24 °C74 %1015.9 hPa16.1 kmEast (80°)25.9 km/h40.7 km/hMostly Cloudy
12:13 PM29 °C24 °C74 %1015.9 hPa16.1 kmENE (70°)25.9 km/hMostly Cloudy
12:28 PM28 °C24 °C79 %1015.6 hPa16.1 kmENE (70°)25.9 km/h35.2 km/hMostly Cloudy
12:38 PM28 °C24 °C79 %1015.6 hPa16.1 kmENE (60°)29.6 km/hMostly Cloudy
12:43 PM28 °C24 °C79 %1015.6 hPa16.1 kmENE (70°)29.6 km/hMostly Cloudy
12:48 PM28 °C24 °C79 %1015.6 hPa16.1 kmENE (60°)27.8 km/hMostly Cloudy
12:58 PM28.5 °C23.8 °C76 %1014.6 hPa16.1 kmEast (80°)27.8 km/h38.9 km/hMostly Cloudy
1:23 PM28 °C24 °C79 %1015.2 hPa16.1 kmENE (70°)27.8 km/hMostly Cloudy
1:28 PM28 °C24 °C79 %1015.2 hPa16.1 kmENE (70°)25.9 km/hMostly Cloudy
1:58 PM28.3 °C23.8 °C76 %1013.9 hPa16.1 kmEast (80°)27.8 km/hScattered Clouds
2:03 PM28 °C24 °C79 %1014.9 hPa16.1 kmENE (70°)27.8 km/hMostly Cloudy
2:13 PM28 °C24 °C79 %1014.6 hPa16.1 kmENE (60°)27.8 km/hMostly Cloudy
2:18 PM28 °C24 °C79 %1014.6 hPa16.1 kmENE (70°)27.8 km/hMostly Cloudy
2:33 PM28 °C24 °C79 %1014.6 hPa16.1 kmENE (70°)33.3 km/hMostly Cloudy
2:38 PM29 °C24 °C74 %1014.6 hPa16.1 kmENE (70°)27.8 km/hScattered Clouds
2:43 PM28 °C24 °C79 %1014.2 hPa16.1 kmENE (70°)29.6 km/hScattered Clouds
2:48 PM28 °C24 °C79 %1014.2 hPa16.1 kmEast (80°)29.6 km/hMostly Cloudy
2:53 PM28 °C24 °C79 %1014.2 hPa16.1 kmENE (70°)29.6 km/hScattered Clouds
2:58 PM27.9 °C23.6 °C77 %1013.2 hPa16.1 kmEast (80°)25.9 km/hScattered Clouds
3:08 PM28 °C24 °C79 %1014.2 hPa16.1 kmENE (70°)27.8 km/h37 km/hMostly Cloudy
3:18 PM28 °C24 °C79 %1013.9 hPa16.1 kmEast (80°)29.6 km/hScattered Clouds
3:48 PM28 °C24 °C79 %1013.9 hPa16.1 kmENE (70°)25.9 km/hMostly Cloudy
3:53 PM28 °C24 °C79 %1013.9 hPa16.1 kmENE (70°)29.6 km/hScattered Clouds
3:58 PM27.8 °C23.5 °C77 %1012.9 hPa16.1 kmEast (80°)27.8 km/hScattered Clouds
4:03 PM28 °C24 °C79 %1013.9 hPa16.1 kmENE (60°)25.9 km/hMostly Cloudy
4:33 PM27 °C24 °C84 %1014.2 hPa16.1 kmENE (70°)29.6 km/hScattered Clouds
4:38 PM27 °C24 °C84 %1014.2 hPa16.1 kmENE (70°)27.8 km/hMostly Cloudy
4:48 PM27 °C23 °C79 %1014.2 hPa16.1 kmEast (80°)29.6 km/hScattered Clouds
4:58 PM27.3 °C23.4 °C79 %1013.2 hPa16.1 kmEast (80°)29.6 km/hScattered Clouds
5:03 PM27 °C23 °C79 %1014.2 hPa16.1 kmENE (70°)22.2 km/hScattered Clouds
5:18 PM27 °C24 °C84 %1014.6 hPa16.1 kmENE (70°)20.4 km/hMostly Cloudy
5:28 PM27 °C23 °C79 %1014.6 hPa16.1 kmENE (70°)25.9 km/h33.3 km/hMostly Cloudy
5:38 PM27 °C23 °C79 %1014.6 hPa16.1 kmENE (70°)25.9 km/hMostly Cloudy
5:48 PM27 °C23 °C79 %1014.6 hPa16.1 kmENE (70°)22.2 km/hMostly Cloudy
5:58 PM26.5 °C23.5 °C83 %1013.9 hPa16.1 kmENE (70°)20.4 km/hMostly Cloudy
6:18 PM26 °C23 °C83 %1014.9 hPa16.1 kmENE (70°)20.4 km/hMostly Cloudy
6:23 PM26 °C23 °C83 %1014.9 hPa16.1 kmENE (70°)25.9 km/hMostly Cloudy
6:33 PM26 °C23 °C83 %1015.2 hPa16.1 kmEast (90°)25.9 km/hMostly Cloudy
6:38 PM26 °C23 °C83 %1015.2 hPa16.1 kmEast (80°)20.4 km/hScattered Clouds
6:48 PM26 °C23 °C83 %1015.2 hPa16.1 kmENE (70°)24.1 km/hMostly Cloudy
6:58 PM25.9 °C23.5 °C87 %1014.6 hPa16.1 kmEast (80°)20.4 km/hScattered Clouds
7:08 PM26 °C23 °C83 %1015.2 hPa16.1 kmEast (80°)22.2 km/hMostly Cloudy
7:13 PM26 °C23 °C83 %1015.6 hPa16.1 kmENE (70°)20.4 km/hScattered Clouds
7:17 PM26 °C24 °C89 %1015.6 hPa16.1 kmENE (70°)20.4 km/hRainLight Rain
7:22 PM26 °C24 °C89 %1015.6 hPa16.1 kmENE (70°)24.1 km/hRainLight Rain
7:27 PM26 °C24 °C89 %1015.6 hPa16.1 kmENE (70°)27.8 km/hRainLight Rain
7:28 PM26 °C24 °C89 %1015.6 hPa16.1 kmENE (70°)25.9 km/hMostly Cloudy
7:38 PM26 °C23 °C83 %1015.6 hPa16.1 kmENE (70°)25.9 km/hMostly Cloudy
7:43 PM26 °C23 °C83 %1015.6 hPa16.1 kmENE (70°)20.4 km/hMostly Cloudy
7:53 PM26 °C23 °C83 %1015.9 hPa16.1 kmENE (60°)22.2 km/hMostly Cloudy
7:58 PM25.6 °C23.5 °C88 %1014.9 hPa16.1 kmENE (70°)20.4 km/h0 mmMostly Cloudy
8:03 PM26 °C24 °C89 %1015.9 hPa16.1 kmENE (70°)22.2 km/hMostly Cloudy
8:08 PM26 °C23 °C83 %1015.9 hPa16.1 kmENE (60°)22.2 km/hMostly Cloudy
8:13 PM26 °C24 °C89 %1015.9 hPa16.1 kmENE (60°)22.2 km/hMostly Cloudy
8:18 PM26 °C24 °C89 %1015.9 hPa16.1 kmENE (60°)20.4 km/hMostly Cloudy
8:23 PM26 °C23 °C83 %1016.3 hPa16.1 kmENE (70°)22.2 km/hMostly Cloudy
8:28 PM26 °C23 °C83 %1016.3 hPa16.1 kmENE (60°)18.5 km/hScattered Clouds
8:33 PM26 °C24 °C89 %1016.3 hPa16.1 kmENE (60°)20.4 km/hMostly Cloudy
8:38 PM26 °C24 °C89 %1016.3 hPa16.1 kmENE (60°)20.4 km/hMostly Cloudy
8:43 PM26 °C24 °C89 %1016.3 hPa16.1 kmENE (60°)18.5 km/hMostly Cloudy
8:58 PM25.6 °C23.5 °C88 %1015.6 hPa16.1 kmENE (60°)22.2 km/hMostly Cloudy
9:03 PM26 °C24 °C89 %1016.3 hPa16.1 kmENE (60°)20.4 km/hMostly Cloudy
9:23 PM26 °C24 °C89 %1016.6 hPa16.1 kmENE (70°)24.1 km/hMostly Cloudy
9:28 PM26 °C24 °C89 %1016.6 hPa16.1 kmENE (70°)22.2 km/hMostly Cloudy
9:33 PM25 °C23 °C89 %1016.6 hPa16.1 kmENE (70°)22.2 km/hScattered Clouds
9:43 PM26 °C23 °C83 %1016.6 hPa16.1 kmENE (70°)20.4 km/hMostly Cloudy
9:48 PM26 °C23 °C83 %1016.6 hPa16.1 kmENE (70°)22.2 km/hMostly Cloudy
9:58 PM25.7 °C23.6 °C88 %1015.6 hPa16.1 kmENE (70°)14.8 km/hMostly Cloudy
9:59 PM26 °C24 °C89 %1016.6 hPa16.1 kmENE (60°)22.2 km/hDrizzle
10:09 PM25 °C24 °C94 %1016.9 hPa16.1 kmENE (70°)24.1 km/hRainLight Rain
10:10 PM25 °C24 °C94 %1016.6 hPa16.1 kmENE (70°)25.9 km/hMostly Cloudy
10:50 PM25 °C23 °C89 %1016.9 hPa16.1 kmENE (70°)20.4 km/hMostly Cloudy
10:58 PM25.4 °C23 °C86 %1015.9 hPa16.1 kmEast (80°)20.4 km/h0 mmMostly Cloudy
11:03 PM25 °C23 °C89 %1016.9 hPa16.1 kmEast (80°)18.5 km/hMostly Cloudy
11:08 PM25 °C23 °C89 %1016.9 hPa16.1 kmEast (80°)20.4 km/hMostly Cloudy
11:18 PM25 °C23 °C89 %1016.9 hPa16.1 kmENE (70°)16.7 km/hMostly Cloudy
11:28 PM25 °C23 °C89 %1016.9 hPa16.1 kmENE (70°)24.1 km/hMostly Cloudy
11:33 PM26 °C23 °C83 %1016.6 hPa16.1 kmENE (60°)20.4 km/hScattered Clouds
11:38 PM26 °C23 °C83 %1016.9 hPa16.1 kmENE (70°)24.1 km/hScattered Clouds
11:48 PM25 °C23 °C89 %1016.6 hPa16.1 kmENE (70°)20.4 km/hMostly Cloudy
11:53 PM25 °C23 °C89 %1016.6 hPa16.1 kmEast (80°)22.2 km/hScattered Clouds
11:58 PM25.4 °C23.3 °C88 %1015.6 hPa16.1 kmENE (70°)20.4 km/hScattered Clouds
Hourly data recorded from PGUA, located 0 kilometers away from Tamuning, Guam







STORIES FROM OUR PARTNERS